Zurück zum Katalog

FAST 2

USA 228

AktivMilitärLEO
NORAD 37380·PAYLOAD·🇺🇸 United States

Gestartet Nov 20, 2010 von Kodiak Launch Complex

Loading…

Nächste Überflüge (nächste 24 Stunden)

TLE

AktuellSource: Space-Track

Epoche: Sep 14, 2026, 13:54 UTC

1 37380U 10062M   26257.57964133  .00000483  00000-0  63904-4 0  9991
2 37380  71.9715 305.8456 0017222 300.2895  59.6566 14.84761415379046

Verfolge FAST 2 in Echtzeit mit AllMySat

Download on the App Store